| time (UTC) | temp F | wind direction | speed knots | gust knots | rain 1hr in | rain 24hr in | rain mn in | humidity % | barometer mb |
| 20260831013245 | 79 | 141 | 0.0 | 0.9 | 0.00 | 0.00 | 0.00 | 85 | 1008.2 |
| 20260831012741 | 79 | 348 | 0.0 | 0.0 | 0.00 | 0.00 | 0.00 | 85 | 1008.3 |
| 20260831012241 | 79 | 350 | 0.0 | 1.7 | 0.00 | 0.00 | 0.00 | 85 | 1008.3 |
| 20260831012008 | 80 | 333 | 0.0 | 1.7 | 0.00 | 0.00 | 0.00 | 84 | 1008.1 |
| 20260831011238 | 80 | 25 | 0.0 | 0.9 | 0.00 | 0.00 | 0.00 | 84 | 1008.0 |
| 20260831010732 | 80 | 355 | 0.0 | 0.0 | 0.00 | 0.00 | 0.00 | 84 | 1008.0 |
| 20260831010226 | 80 | 66 | 0.0 | 0.0 | 0.00 | 0.00 | 0.00 | 83 | 1008.0 |
| 20260831005720 | 80 | 66 | 0.0 | 0.0 | 0.00 | 0.00 | 0.00 | 83 | 1008.0 |
| 20260831005214 | 80 | 68 | 0.0 | 0.9 | 0.00 | 0.00 | 0.00 | 83 | 1007.9 |
| 20260831004708 | 81 | 68 | 0.0 | 0.9 | 0.00 | 0.00 | 0.00 | 82 | 1007.9 |
| 20260831004202 | 81 | 317 | 0.0 | 0.9 | 0.00 | 0.00 | 0.00 | 82 | 1007.8 |
| 20260831003656 | 81 | 34 | 0.0 | 0.9 | 0.00 | 0.00 | 0.00 | 82 | 1007.9 |
| 20260831003150 | 81 | 97 | 0.0 | 0.9 | 0.00 | 0.00 | 0.00 | 81 | 1008.0 |
| 20260831002644 | 81 | 359 | 0.0 | 0.9 | 0.00 | 0.00 | 0.00 | 81 | 1008.1 |
| 20260831002138 | 82 | 358 | 0.0 | 0.0 | 0.00 | 0.00 | 0.00 | 81 | 1008.1 |
| 20260831002133 | 82 | 358 | 0.0 | 4.3 | 0.00 | 0.00 | 0.00 | 80 | 1008.0 |
| 20260831001356 | 82 | 352 | 0.0 | 4.3 | 0.00 | 0.00 | 0.00 | 80 | 1008.1 |
| 20260831000619 | 82 | 84 | 0.0 | 1.7 | 0.00 | 0.00 | 0.00 | 80 | 1008.0 |
| 20260831000111 | 82 | 0 | 0.0 | 0.9 | 0.00 | 0.00 | 0.00 | 80 | 1008.0 |
| 20260830235606 | 83 | 94 | 0.0 | 0.9 | 0.00 | 0.00 | 0.00 | 79 | 1007.9 |
| 20260830235601 | 83 | 355 | 0.0 | 0.9 | 0.00 | 0.00 | 0.00 | 78 | 1007.9 |
| 20260830234554 | 83 | 75 | 0.0 | 1.7 | 0.00 | 0.00 | 0.00 | 78 | 1008.0 |
| 20260830234047 | 83 | 91 | 0.0 | 1.7 | 0.00 | 0.00 | 0.00 | 77 | 1008.0 |
| 20260830233541 | 83 | 85 | 0.0 | 1.7 | 0.00 | 0.00 | 0.00 | 77 | 1008.0 |
| 20260830233036 | 84 | 8 | 0.0 | 0.9 | 0.00 | 0.00 | 0.00 | 76 | 1008.1 |
| 20260830232530 | 84 | 354 | 0.0 | 2.6 | 0.00 | 0.00 | 0.00 | 76 | 1008.1 |
| 20260830232023 | 84 | 25 | 0.0 | 2.6 | 0.00 | 0.00 | 0.00 | 75 | 1008.0 |
| 20260830231518 | 85 | 15 | 0.0 | 3.5 | 0.00 | 0.00 | 0.00 | 74 | 1007.9 |
| 20260830231011 | 85 | 95 | 0.0 | 3.5 | 0.00 | 0.00 | 0.00 | 73 | 1008.0 |
| 20260830230506 | 85 | 71 | 0.0 | 3.5 | 0.00 | 0.00 | 0.00 | 73 | 1008.2 |
| 20260830230000 | 85 | 322 | 0.0 | 3.5 | 0.00 | 0.00 | 0.00 | 73 | 1008.1 |
| 20260830225454 | 86 | 359 | 0.0 | 2.6 | 0.00 | 0.00 | 0.00 | 72 | 1008.0 |
| 20260830224948 | 86 | 98 | 0.0 | 2.6 | 0.00 | 0.00 | 0.00 | 72 | 1008.0 |
| 20260830224441 | 87 | 110 | 0.9 | 5.2 | 0.00 | 0.00 | 0.00 | 71 | 1008.1 |
| 20260830224208 | 87 | 97 | 0.0 | 3.5 | 0.00 | 0.00 | 0.00 | 70 | 1008.1 |
| 20260830223700 | 87 | 336 | 0.0 | 2.6 | 0.00 | 0.00 | 0.00 | 73 | 1008.1 |
| 20260830223155 | 86 | 75 | 0.0 | 5.2 | 0.00 | 0.00 | 0.00 | 73 | 1008.1 |
| 20260830222650 | 85 | 322 | 0.9 | 5.2 | 0.00 | 0.00 | 0.00 | 72 | 1008.0 |
| 20260830221912 | 85 | 340 | 0.9 | 6.1 | 0.00 | 0.00 | 0.00 | 73 | 1007.9 |
| 20260830221406 | 85 | 345 | 0.9 | 6.1 | 0.00 | 0.00 | 0.00 | 73 | 1008.1 |
| 20260830220900 | 85 | 113 | 0.0 | 4.3 | 0.00 | 0.00 | 0.00 | 73 | 1008.2 |
| 20260830220354 | 85 | 134 | 0.9 | 4.3 | 0.00 | 0.00 | 0.00 | 75 | 1008.3 |
| 20260830220119 | 84 | 22 | 0.9 | 3.5 | 0.00 | 0.00 | 0.00 | 76 | 1008.2 |
| 20260830215612 | 83 | 339 | 0.9 | 3.5 | 0.00 | 0.00 | 0.00 | 75 | 1008.3 |
| 20260830214836 | 83 | 58 | 0.9 | 3.5 | 0.00 | 0.00 | 0.00 | 77 | 1008.3 |
| 20260830214330 | 84 | 50 | 0.9 | 4.3 | 0.00 | 0.00 | 0.00 | 75 | 1008.3 |
| 20260830213824 | 83 | 88 | 0.9 | 4.3 | 0.00 | 0.00 | 0.00 | 77 | 1008.4 |
| 20260830213318 | 83 | 122 | 0.0 | 3.5 | 0.00 | 0.00 | 0.00 | 77 | 1008.5 |
| 20260830212812 | 83 | 325 | 0.0 | 2.6 | 0.00 | 0.00 | 0.00 | 77 | 1008.6 |
| 20260830212306 | 83 | 105 | 0.0 | 2.6 | 0.00 | 0.00 | 0.00 | 76 | 1008.5 |
| 20260830211759 | 83 | 89 | 0.9 | 3.5 | 0.00 | 0.00 | 0.00 | 76 | 1008.6 |
| 20260830210748 | 83 | 184 | 0.9 | 3.5 | 0.00 | 0.00 | 0.00 | 77 | 1008.8 |
| 20260830210242 | 83 | 43 | 0.9 | 4.3 | 0.00 | 0.00 | 0.00 | 77 | 1008.7 |
| 20260830205735 | 83 | 295 | 0.9 | 4.3 | 0.00 | 0.00 | 0.00 | 76 | 1008.7 |
| 20260830205231 | 83 | 18 | 0.9 | 3.5 | 0.00 | 0.00 | 0.00 | 78 | 1008.7 |
| 20260830204724 | 82 | 300 | 0.9 | 3.5 | 0.00 | 0.00 | 0.00 | 79 | 1008.8 |
| 20260830204218 | 82 | 146 | 0.9 | 3.5 | 0.00 | 0.00 | 0.00 | 79 | 1008.8 |
| 20260830203942 | 81 | 149 | 0.9 | 2.6 | 0.00 | 0.00 | 0.00 | 79 | 1008.8 |
| 20260830203205 | 82 | 120 | 0.9 | 4.3 | 0.00 | 0.00 | 0.00 | 78 | 1008.7 |
| 20260830202659 | 82 | 125 | 0.9 | 4.3 | 0.00 | 0.00 | 0.00 | 78 | 1008.7 |
| 20260830202154 | 82 | 338 | 0.9 | 4.3 | 0.00 | 0.00 | 0.00 | 77 | 1008.7 |
| 20260830201921 | 83 | 343 | 0.9 | 6.1 | 0.00 | 0.00 | 0.00 | 76 | 1008.7 |
| 20260830201142 | 83 | 277 | 0.9 | 6.1 | 0.00 | 0.00 | 0.00 | 77 | 1008.6 |
| 20260830200635 | 83 | 331 | 0.9 | 3.5 | 0.00 | 0.00 | 0.00 | 76 | 1008.6 |
| 20260830200130 | 83 | 9 | 0.9 | 4.3 | 0.00 | 0.00 | 0.00 | 77 | 1008.7 |
| 20260830195854 | 82 | 0 | 0.9 | 4.3 | 0.00 | 0.00 | 0.00 | 79 | 1008.8 |
| 20260830195117 | 82 | 15 | 0.9 | 5.2 | 0.00 | 0.00 | 0.00 | 80 | 1008.8 |
| 20260830194612 | 81 | 85 | 1.7 | 6.1 | 0.00 | 0.00 | 0.00 | 78 | 1008.8 |
| 20260830194106 | 81 | 155 | 0.9 | 6.1 | 0.00 | 0.00 | 0.00 | 80 | 1008.7 |
| 20260830193600 | 80 | 12 | 0.9 | 4.3 | 0.00 | 0.00 | 0.00 | 81 | 1009.1 |
| 20260830193054 | 80 | 276 | 0.9 | 3.5 | 0.00 | 0.00 | 0.00 | 81 | 1009.3 |
| 20260830192548 | 80 | 359 | 0.9 | 2.6 | 0.00 | 0.00 | 0.00 | 81 | 1009.5 |
| 20260830192042 | 80 | 345 | 0.9 | 2.6 | 0.00 | 0.00 | 0.00 | 82 | 1009.6 |
| 20260830191536 | 79 | 15 | 0.9 | 2.6 | 0.00 | 0.00 | 0.00 | 81 | 1009.6 |
| 20260830191030 | 79 | 319 | 0.0 | 2.6 | 0.00 | 0.00 | 0.00 | 82 | 1009.7 |
| 20260830190524 | 79 | 39 | 0.0 | 2.6 | 0.00 | 0.00 | 0.00 | 82 | 1009.9 |
| 20260830190018 | 79 | 46 | 0.0 | 2.6 | 0.00 | 0.00 | 0.00 | 83 | 1009.9 |
| 20260830185512 | 79 | 346 | 0.0 | 1.7 | 0.00 | 0.00 | 0.00 | 81 | 1009.9 |
| 20260830185006 | 79 | 18 | 0.0 | 1.7 | 0.00 | 0.00 | 0.00 | 83 | 1010.0 |
| 20260830184500 | 79 | 108 | 0.0 | 1.7 | 0.00 | 0.00 | 0.00 | 85 | 1010.0 |
| 20260830184224 | 78 | 345 | 0.0 | 0.9 | 0.00 | 0.00 | 0.00 | 84 | 1010.0 |
| 20260830183448 | 78 | 312 | 0.0 | 0.9 | 0.00 | 0.00 | 0.00 | 85 | 1010.1 |
| 20260830182941 | 77 | 98 | 0.0 | 0.9 | 0.00 | 0.00 | 0.00 | 85 | 1010.1 |
| 20260830182436 | 77 | 72 | 0.0 | 1.7 | 0.00 | 0.00 | 0.00 | 85 | 1009.8 |
| 20260830182201 | 77 | 330 | 0.0 | 1.7 | 0.00 | 0.00 | 0.00 | 85 | 1009.9 |
| 20260830181424 | 77 | 98 | 0.0 | 1.7 | 0.00 | 0.00 | 0.00 | 85 | 1010.1 |
| 20260830180917 | 77 | 33 | 0.0 | 1.7 | 0.00 | 0.00 | 0.00 | 85 | 1010.1 |
| 20260830180412 | 77 | 145 | 0.0 | 2.6 | 0.00 | 0.00 | 0.00 | 86 | 1010.2 |
| 20260830175906 | 77 | 6 | 0.0 | 4.3 | 0.00 | 0.00 | 0.00 | 85 | 1010.3 |
| 20260830175359 | 77 | 109 | 0.0 | 4.3 | 0.00 | 0.00 | 0.00 | 85 | 1010.2 |
| 20260830174854 | 76 | 336 | 0.0 | 2.6 | 0.00 | 0.00 | 0.00 | 85 | 1010.2 |
| 20260830174348 | 76 | 340 | 0.0 | 0.9 | 0.00 | 0.00 | 0.00 | 86 | 1010.2 |
| 20260830173841 | 76 | 20 | 0.0 | 0.9 | 0.00 | 0.00 | 0.00 | 86 | 1010.1 |
| 20260830173336 | 76 | 330 | 0.0 | 0.9 | 0.00 | 0.00 | 0.00 | 86 | 1010.3 |
| 20260830172830 | 76 | 99 | 0.0 | 2.6 | 0.00 | 0.00 | 0.00 | 86 | 1010.3 |
| 20260830172324 | 76 | 337 | 0.0 | 2.6 | 0.00 | 0.00 | 0.00 | 86 | 1010.4 |
| 20260830171818 | 76 | 312 | 0.0 | 0.9 | 0.00 | 0.00 | 0.00 | 86 | 1010.4 |
| 20260830171312 | 76 | 222 | 0.0 | 0.9 | 0.00 | 0.00 | 0.00 | 86 | 1010.3 |
| 20260830170806 | 76 | 115 | 0.0 | 2.6 | 0.00 | 0.00 | 0.00 | 86 | 1010.1 |
| 20260830170259 | 76 | 343 | 0.0 | 2.6 | 0.00 | 0.00 | 0.00 | 86 | 1010.2 |
| 20260830165754 | 76 | 291 | 0.0 | 6.1 | 0.00 | 0.00 | 0.00 | 86 | 1009.9 |
| 20260830165249 | 75 | 127 | 0.0 | 6.1 | 0.00 | 0.00 | 0.00 | 86 | 1009.9 |
| 20260830165243 | 75 | 356 | 0.0 | 2.6 | 0.00 | 0.00 | 0.00 | 87 | 1009.9 |
| 20260830164236 | 75 | 345 | 0.0 | 2.6 | 0.00 | 0.00 | 0.00 | 87 | 1010.1 |
| 20260830163730 | 75 | 322 | 0.0 | 1.7 | 0.00 | 0.00 | 0.00 | 87 | 1010.0 |
| 20260830163223 | 75 | 338 | 0.0 | 1.7 | 0.00 | 0.00 | 0.00 | 87 | 1010.0 |
| 20260830162718 | 75 | 341 | 0.0 | 4.3 | 0.00 | 0.00 | 0.00 | 87 | 1009.9 |
| 20260830162219 | 75 | 335 | 0.9 | 4.3 | 0.00 | 0.00 | 0.00 | 87 | 1009.9 |
| 20260830161706 | 75 | 356 | 0.0 | 2.6 | 0.00 | 0.00 | 0.00 | 88 | 1009.8 |
| 20260830161430 | 74 | 339 | 0.0 | 2.6 | 0.00 | 0.00 | 0.00 | 88 | 1009.8 |
| 20260830160925 | 74 | 308 | 0.0 | 2.6 | 0.00 | 0.00 | 0.00 | 88 | 1009.8 |
| 20260830160147 | 74 | 39 | 0.0 | 3.5 | 0.00 | 0.00 | 0.00 | 88 | 1009.8 |
| 20260830155642 | 74 | 40 | 0.0 | 3.5 | 0.00 | 0.00 | 0.00 | 87 | 1009.8 |
| 20260830155136 | 74 | 356 | 0.0 | 0.9 | 0.00 | 0.00 | 0.00 | 87 | 1010.0 |
| 20260830154629 | 74 | 358 | 0.0 | 1.7 | 0.00 | 0.00 | 0.00 | 88 | 1010.0 |
| 20260830154123 | 74 | 350 | 0.0 | 1.7 | 0.00 | 0.00 | 0.00 | 88 | 1010.0 |
| 20260830153617 | 74 | 345 | 0.0 | 1.7 | 0.00 | 0.00 | 0.00 | 87 | 1010.0 |
| 20260830153111 | 74 | 98 | 0.0 | 1.7 | 0.00 | 0.00 | 0.00 | 88 | 1009.8 |
| 20260830152606 | 74 | 345 | 0.0 | 1.7 | 0.00 | 0.00 | 0.00 | 89 | 1010.1 |
| 20260830152100 | 73 | 93 | 0.0 | 3.5 | 0.00 | 0.00 | 0.00 | 90 | 1010.1 |
| 20260830151559 | 73 | 67 | 0.0 | 3.5 | 0.00 | 0.00 | 0.00 | 89 | 1009.9 |
| 20260830151048 | 73 | 345 | 0.0 | 1.7 | 0.00 | 0.00 | 0.00 | 89 | 1009.5 |
| 20260830150542 | 73 | 71 | 0.0 | 2.6 | 0.00 | 0.00 | 0.00 | 89 | 1009.3 |
| 20260830150307 | 72 | 15 | 0.0 | 2.6 | 0.00 | 0.00 | 0.00 | 89 | 1009.7 |
| 20260830145530 | 72 | 348 | 0.0 | 2.6 | 0.00 | 0.00 | 0.00 | 90 | 1009.8 |
| 20260830145024 | 71 | 89 | 0.0 | 1.7 | 0.00 | 0.00 | 0.00 | 91 | 1009.9 |
| 20260830144750 | 71 | 356 | 0.0 | 1.7 | 0.00 | 0.00 | 0.00 | 92 | 1010.1 |
| 20260830144243 | 71 | 94 | 0.9 | 2.6 | 0.00 | 0.00 | 0.00 | 91 | 1010.2 |
| 20260830143507 | 71 | 350 | 0.0 | 2.6 | 0.00 | 0.00 | 0.00 | 91 | 1010.0 |
| 20260830142959 | 71 | 339 | 0.0 | 2.6 | 0.00 | 0.00 | 0.00 | 91 | 1010.0 |
| 20260830142454 | 71 | 7 | 0.0 | 1.7 | 0.00 | 0.00 | 0.00 | 92 | 1010.1 |
| 20260830141948 | 70 | 131 | 0.0 | 1.7 | 0.00 | 0.00 | 0.00 | 93 | 1010.0 |
| 20260830141442 | 69 | 49 | 0.0 | 1.7 | 0.00 | 0.00 | 0.00 | 93 | 1009.8 |
| 20260830140936 | 69 | 357 | 0.0 | 0.9 | 0.00 | 0.00 | 0.00 | 94 | 1009.9 |
| 20260830140430 | 69 | 356 | 0.0 | 0.9 | 0.00 | 0.01 | 0.00 | 94 | 1010.0 |
| 20260830135924 | 69 | 25 | 0.0 | 2.6 | 0.00 | 0.01 | 0.00 | 94 | 1010.1 |
| 20260830135418 | 68 | 100 | 0.0 | 2.6 | 0.00 | 0.01 | 0.00 | 94 | 1010.0 |
| 20260830134912 | 68 | 93 | 0.0 | 1.7 | 0.00 | 0.01 | 0.00 | 94 | 1009.9 |
| 20260830134406 | 68 | 23 | 0.0 | 1.7 | 0.00 | 0.01 | 0.00 | 94 | 1010.0 |
| 20260830133901 | 68 | 92 | 0.0 | 1.7 | 0.00 | 0.01 | 0.00 | 95 | 1009.8 |
| 20260830133855 | 68 | 115 | 0.0 | 1.7 | 0.00 | 0.02 | 0.00 | 95 | 1009.7 |
| 20260830132847 | 68 | 102 | 0.0 | 0.9 | 0.00 | 0.02 | 0.00 | 95 | 1009.9 |
| 20260830132342 | 68 | 25 | 0.0 | 1.7 | 0.00 | 0.03 | 0.00 | 95 | 1010.0 |
| 20260830131836 | 67 | 9 | 0.0 | 2.6 | 0.00 | 0.06 | 0.00 | 95 | 1010.1 |
| 20260830131329 | 67 | 16 | 0.0 | 2.6 | 0.00 | 0.07 | 0.00 | 95 | 1010.2 |
| 20260830130823 | 67 | 324 | 0.0 | 0.9 | 0.00 | 0.08 | 0.00 | 95 | 1010.2 |
| 20260830130317 | 67 | 324 | 0.0 | 0.9 | 0.00 | 0.08 | 0.00 | 95 | 1010.1 |
| 20260830125812 | 67 | 322 | 0.0 | 0.9 | 0.00 | 0.08 | 0.00 | 96 | 1010.0 |
| 20260830125537 | 67 | 300 | 0.0 | 0.9 | 0.00 | 0.08 | 0.00 | 96 | 1009.9 |
| 20260830124800 | 67 | 350 | 0.0 | 0.9 | 0.00 | 0.08 | 0.00 | 96 | 1009.9 |
| 20260830124253 | 67 | 345 | 0.0 | 0.9 | 0.00 | 0.08 | 0.00 | 96 | 1009.9 |
| 20260830124019 | 67 | 345 | 0.0 | 0.9 | 0.00 | 0.08 | 0.00 | 96 | 1010.1 |
| 20260830123243 | 67 | 351 | 0.0 | 0.9 | 0.00 | 0.08 | 0.00 | 96 | 1010.3 |
| 20260830123238 | 67 | 350 | 0.0 | 0.9 | 0.00 | 0.08 | 0.00 | 96 | 1010.1 |
| 20260830122230 | 67 | 0 | 0.0 | 1.7 | 0.00 | 0.08 | 0.00 | 96 | 1010.0 |
| 20260830121724 | 67 | 4 | 0.0 | 1.7 | 0.00 | 0.10 | 0.00 | 96 | 1010.0 |
| 20260830121218 | 66 | 105 | 0.0 | 0.0 | 0.00 | 0.11 | 0.00 | 96 | 1009.7 |
| 20260830120712 | 66 | 351 | 0.0 | 0.0 | 0.00 | 0.11 | 0.00 | 96 | 1009.6 |
| 20260830120206 | 66 | 351 | 0.0 | 0.0 | 0.00 | 0.12 | 0.00 | 96 | 1009.7 |
| 20260830120201 | 66 | 352 | 0.0 | 0.0 | 0.00 | 0.12 | 0.00 | 96 | 1009.7 |
| 20260830115155 | 66 | 345 | 0.0 | 0.0 | 0.00 | 0.13 | 0.00 | 96 | 1009.7 |
| 20260830114647 | 66 | 345 | 0.0 | 0.0 | 0.00 | 0.15 | 0.00 | 96 | 1009.5 |
| 20260830114142 | 66 | 343 | 0.0 | 0.0 | 0.00 | 0.16 | 0.00 | 96 | 1009.3 |
| 20260830113906 | 66 | 343 | 0.0 | 0.0 | 0.00 | 0.16 | 0.00 | 96 | 1009.5 |
| 20260830113130 | 66 | 342 | 0.0 | 0.9 | 0.00 | 0.17 | 0.00 | 96 | 1009.6 |
| 20260830112624 | 66 | 341 | 0.0 | 0.9 | 0.00 | 0.17 | 0.00 | 96 | 1009.7 |
| 20260830112118 | 66 | 342 | 0.0 | 0.0 | 0.00 | 0.17 | 0.00 | 96 | 1009.8 |
| 20260830111612 | 66 | 342 | 0.0 | 0.0 | 0.00 | 0.17 | 0.00 | 96 | 1009.7 |
| 20260830111106 | 66 | 343 | 0.0 | 0.0 | 0.00 | 0.18 | 0.00 | 96 | 1009.6 |
| 20260830110600 | 66 | 342 | 0.0 | 0.0 | 0.00 | 0.18 | 0.00 | 96 | 1009.8 |
| 20260830110324 | 66 | 342 | 0.0 | 0.9 | 0.00 | 0.19 | 0.00 | 96 | 1009.9 |
| 20260830105818 | 66 | 342 | 0.0 | 0.9 | 0.00 | 0.20 | 0.00 | 96 | 1009.7 |
| 20260830105041 | 66 | 307 | 0.0 | 0.0 | 0.00 | 0.20 | 0.00 | 96 | 1009.6 |
| 20260830104536 | 66 | 307 | 0.0 | 0.0 | 0.00 | 0.21 | 0.00 | 96 | 1009.7 |
| 20260830104029 | 66 | 312 | 0.0 | 0.0 | 0.00 | 0.22 | 0.00 | 96 | 1009.8 |
| 20260830103524 | 66 | 311 | 0.0 | 0.0 | 0.00 | 0.24 | 0.00 | 95 | 1010.0 |
| 20260830103017 | 66 | 311 | 0.0 | 0.0 | 0.00 | 0.24 | 0.00 | 95 | 1010.0 |
| 20260830102511 | 66 | 311 | 0.0 | 0.0 | 0.00 | 0.24 | 0.00 | 95 | 1009.9 |
| 20260830102005 | 66 | 345 | 0.0 | 0.0 | 0.00 | 0.24 | 0.00 | 95 | 1009.9 |
| 20260830101500 | 66 | 27 | 0.0 | 0.0 | 0.00 | 0.24 | 0.00 | 95 | 1009.8 |
| 20260830100953 | 66 | 27 | 0.0 | 0.0 | 0.00 | 0.24 | 0.00 | 95 | 1009.6 |
| 20260830100448 | 67 | 28 | 0.0 | 0.0 | 0.00 | 0.24 | 0.00 | 95 | 1009.5 |
| 20260830095942 | 67 | 27 | 0.0 | 0.0 | 0.00 | 0.24 | 0.00 | 95 | 1009.6 |
| 20260830095436 | 67 | 27 | 0.0 | 0.9 | 0.00 | 0.24 | 0.00 | 95 | 1009.6 |
| 20260830094930 | 67 | 27 | 0.0 | 0.9 | 0.00 | 0.24 | 0.00 | 95 | 1009.3 |
| 20260830094424 | 67 | 98 | 0.0 | 0.9 | 0.00 | 0.24 | 0.00 | 95 | 1009.1 |
| 20260830093917 | 67 | 43 | 0.0 | 0.0 | 0.00 | 0.24 | 0.00 | 95 | 1009.2 |
| 20260830093411 | 67 | 44 | 0.0 | 0.0 | 0.00 | 0.24 | 0.00 | 95 | 1009.6 |
| 20260830093142 | 67 | 44 | 0.0 | 0.9 | 0.00 | 0.24 | 0.00 | 95 | 1009.5 |
| 20260830092409 | 67 | 43 | 0.0 | 0.9 | 0.00 | 0.24 | 0.00 | 95 | 1009.5 |
| 20260830091910 | 67 | 43 | 0.0 | 0.0 | 0.00 | 0.24 | 0.00 | 95 | 1009.2 |
| 20260830091410 | 67 | 44 | 0.0 | 0.0 | 0.00 | 0.24 | 0.00 | 95 | 1009.3 |
| 20260830090906 | 67 | 29 | 0.0 | 0.0 | 0.00 | 0.24 | 0.00 | 95 | 1009.3 |
| 20260830090637 | 67 | 29 | 0.0 | 0.0 | 0.00 | 0.24 | 0.00 | 95 | 1009.2 |
| 20260830085907 | 67 | 28 | 0.0 | 0.0 | 0.00 | 0.24 | 0.00 | 95 | 1009.5 |
| 20260830085405 | 67 | 29 | 0.0 | 0.0 | 0.00 | 0.24 | 0.00 | 95 | 1009.6 |
| 20260830084904 | 67 | 28 | 0.0 | 0.0 | 0.00 | 0.24 | 0.00 | 95 | 1009.5 |
| 20260830084635 | 67 | 27 | 0.0 | 0.0 | 0.00 | 0.24 | 0.00 | 95 | 1009.6 |
| 20260830084137 | 67 | 28 | 0.0 | 0.0 | 0.00 | 0.25 | 0.00 | 95 | 1009.5 |
| 20260830083404 | 67 | 28 | 0.0 | 0.0 | 0.00 | 0.25 | 0.00 | 95 | 1009.5 |
| 20260830082905 | 67 | 26 | 0.0 | 0.0 | 0.00 | 0.25 | 0.00 | 95 | 1009.6 |
| 20260830082406 | 67 | 26 | 0.0 | 0.0 | 0.00 | 0.25 | 0.00 | 95 | 1009.7 |
| 20260830081906 | 67 | 27 | 0.0 | 0.0 | 0.00 | 0.25 | 0.00 | 95 | 1009.7 |
| 20260830081404 | 67 | 26 | 0.0 | 0.9 | 0.00 | 0.25 | 0.00 | 95 | 1009.9 |
| 20260830080902 | 67 | 26 | 0.0 | 0.9 | 0.00 | 0.25 | 0.00 | 95 | 1009.7 |
| 20260830080400 | 67 | 41 | 0.0 | 0.9 | 0.00 | 0.25 | 0.00 | 95 | 1009.6 |
| 20260830075902 | 67 | 49 | 0.0 | 0.0 | 0.00 | 0.25 | 0.00 | 95 | 1009.7 |
| 20260830075401 | 67 | 49 | 0.0 | 0.0 | 0.00 | 0.25 | 0.00 | 95 | 1009.8 |
| 20260830074901 | 67 | 49 | 0.0 | 0.0 | 0.00 | 0.25 | 0.00 | 94 | 1010.0 |
| 20260830074358 | 67 | 50 | 0.0 | 0.0 | 0.00 | 0.25 | 0.00 | 94 | 1010.1 |
| 20260830073858 | 67 | 50 | 0.0 | 0.0 | 0.00 | 0.25 | 0.00 | 94 | 1010.0 |
| 20260830073359 | 68 | 49 | 0.0 | 0.0 | 0.00 | 0.25 | 0.00 | 94 | 1010.0 |
| 20260830072858 | 68 | 49 | 0.0 | 0.0 | 0.00 | 0.25 | 0.00 | 94 | 1009.9 |
| 20260830072629 | 68 | 50 | 0.0 | 0.0 | 0.00 | 0.27 | 0.00 | 94 | 1009.9 |
| 20260830072127 | 68 | 49 | 0.0 | 0.9 | 0.00 | 0.34 | 0.00 | 94 | 1010.0 |
| 20260830071357 | 68 | 49 | 0.0 | 0.9 | 0.00 | 0.34 | 0.00 | 94 | 1010.1 |
| 20260830070856 | 68 | 49 | 0.0 | 0.9 | 0.00 | 0.34 | 0.00 | 94 | 1010.2 |
| 20260830070629 | 68 | 49 | 0.0 | 0.9 | 0.00 | 0.34 | 0.00 | 94 | 1010.1 |
| 20260830065855 | 68 | 49 | 0.0 | 0.9 | 0.00 | 0.34 | 0.00 | 94 | 1010.0 |
| 20260830065352 | 68 | 111 | 0.0 | 0.0 | 0.00 | 0.34 | 0.00 | 94 | 1010.1 |
| 20260830064854 | 68 | 112 | 0.0 | 0.0 | 0.00 | 0.34 | 0.00 | 94 | 1010.1 |
| 20260830064350 | 68 | 112 | 0.0 | 0.9 | 0.00 | 0.34 | 0.00 | 94 | 1010.1 |
| 20260830063848 | 68 | 111 | 0.0 | 0.9 | 0.00 | 0.34 | 0.00 | 94 | 1010.1 |
| 20260830063349 | 68 | 112 | 0.0 | 0.9 | 0.00 | 0.34 | 0.00 | 94 | 1010.2 |
| 20260830062850 | 68 | 111 | 0.0 | 0.0 | 0.00 | 0.34 | 0.00 | 94 | 1010.2 |
| 20260830062344 | 68 | 112 | 0.0 | 0.0 | 0.00 | 0.34 | 0.00 | 93 | 1010.1 |
| 20260830061846 | 68 | 349 | 0.0 | 0.0 | 0.00 | 0.34 | 0.00 | 93 | 1010.2 |
| 20260830061346 | 68 | 349 | 0.0 | 0.0 | 0.00 | 0.34 | 0.00 | 93 | 1010.3 |
| 20260830061116 | 68 | 347 | 0.0 | 0.0 | 0.00 | 0.34 | 0.00 | 93 | 1010.4 |
| 20260830061004 | 68 | 348 | 0.0 | 0.0 | 0.00 | 0.34 | 0.00 | 93 | 1010.5 |
| 20260830060126 | 69 | 349 | 0.0 | 0.0 | 0.00 | 0.34 | 0.00 | 93 | 1010.5 |
| 20260830055846 | 69 | 349 | 0.0 | 0.0 | 0.00 | 0.34 | 0.00 | 93 | 1010.5 |
| 20260830054844 | 69 | 349 | 0.0 | 0.9 | 0.00 | 0.34 | 0.00 | 93 | 1010.5 |
| 20260830054346 | 69 | 347 | 0.0 | 0.9 | 0.00 | 0.34 | 0.00 | 93 | 1010.5 |
| 20260830053845 | 69 | 349 | 0.0 | 0.9 | 0.00 | 0.34 | 0.00 | 93 | 1010.5 |
| 20260830053618 | 69 | 75 | 0.0 | 0.9 | 0.00 | 0.34 | 0.00 | 93 | 1010.6 |
| 20260830052850 | 69 | 75 | 0.0 | 0.0 | 0.00 | 0.34 | 0.00 | 93 | 1010.5 |
| 20260830052845 | 69 | 75 | 0.0 | 0.9 | 0.00 | 0.34 | 0.00 | 93 | 1010.5 |
| 20260830051845 | 69 | 75 | 0.0 | 0.0 | 0.00 | 0.34 | 0.00 | 93 | 1010.6 |
| 20260830051615 | 69 | 75 | 0.0 | 0.9 | 0.00 | 0.34 | 0.00 | 92 | 1010.6 |
| 20260830050844 | 69 | 75 | 0.0 | 0.9 | 0.00 | 0.34 | 0.00 | 92 | 1010.7 |
| 20260830050344 | 69 | 75 | 0.0 | 0.0 | 0.00 | 0.34 | 0.00 | 92 | 1010.8 |
| 20260830045845 | 69 | 77 | 0.0 | 0.0 | 0.00 | 0.34 | 0.34 | 92 | 1010.7 |
| 20260830045839 | 69 | 79 | 0.0 | 0.0 | 0.00 | 0.34 | 0.34 | 92 | 1010.8 |
| 20260830044830 | 69 | 79 | 0.0 | 0.0 | 0.00 | 0.34 | 0.34 | 92 | 1010.8 |
| 20260830044324 | 69 | 79 | 0.0 | 0.0 | 0.00 | 0.34 | 0.34 | 92 | 1010.8 |
| 20260830044048 | 69 | 79 | 0.0 | 0.9 | 0.00 | 0.34 | 0.34 | 92 | 1010.8 |
| 20260830043312 | 69 | 79 | 0.0 | 0.9 | 0.00 | 0.34 | 0.34 | 92 | 1010.8 |
| 20260830042805 | 69 | 36 | 0.0 | 0.0 | 0.00 | 0.34 | 0.34 | 92 | 1010.9 |
| 20260830042300 | 70 | 37 | 0.0 | 0.0 | 0.00 | 0.34 | 0.34 | 91 | 1010.8 |
| 20260830041247 | 70 | 35 | 0.0 | 0.0 | 0.00 | 0.34 | 0.34 | 91 | 1010.9 |
| 20260830040742 | 70 | 37 | 0.0 | 0.0 | 0.00 | 0.34 | 0.34 | 91 | 1010.8 |
| 20260830040236 | 70 | 36 | 0.0 | 0.0 | 0.00 | 0.34 | 0.34 | 91 | 1011.0 |
| 20260830035729 | 70 | 37 | 0.0 | 0.0 | 0.00 | 0.34 | 0.34 | 91 | 1011.0 |
| 20260830035223 | 70 | 37 | 0.0 | 0.0 | 0.00 | 0.34 | 0.34 | 91 | 1010.9 |
| 20260830034718 | 70 | 29 | 0.0 | 0.9 | 0.00 | 0.34 | 0.34 | 91 | 1010.9 |
| 20260830034212 | 70 | 94 | 0.0 | 0.9 | 0.00 | 0.34 | 0.34 | 91 | 1010.8 |
| 20260830033706 | 70 | 91 | 0.0 | 0.9 | 0.00 | 0.34 | 0.34 | 91 | 1010.9 |
| 20260830033200 | 70 | 84 | 0.0 | 0.9 | 0.00 | 0.34 | 0.34 | 91 | 1010.9 |
| 20260830032654 | 70 | 85 | 0.0 | 0.9 | 0.00 | 0.34 | 0.34 | 91 | 1011.0 |
| 20260830032147 | 71 | 85 | 0.0 | 0.9 | 0.00 | 0.34 | 0.34 | 90 | 1011.0 |
| 20260830031642 | 71 | 65 | 0.0 | 0.0 | 0.00 | 0.34 | 0.34 | 90 | 1011.1 |
| 20260830031408 | 71 | 350 | 0.0 | 0.9 | 0.00 | 0.34 | 0.34 | 90 | 1011.0 |
| 20260830030635 | 71 | 351 | 0.0 | 0.9 | 0.00 | 0.34 | 0.34 | 90 | 1011.1 |
| 20260830030121 | 71 | 98 | 0.0 | 0.9 | 0.00 | 0.34 | 0.34 | 90 | 1011.0 |
| 20260830025614 | 71 | 100 | 0.0 | 0.9 | 0.00 | 0.34 | 0.34 | 90 | 1011.1 |
| 20260830025107 | 71 | 119 | 0.0 | 0.9 | 0.00 | 0.34 | 0.34 | 90 | 1011.1 |
| 20260830024602 | 71 | 119 | 0.0 | 0.9 | 0.00 | 0.34 | 0.34 | 90 | 1010.9 |
| 20260830024056 | 71 | 117 | 0.0 | 0.9 | 0.00 | 0.34 | 0.34 | 90 | 1010.8 |
| 20260830023549 | 71 | 117 | 0.0 | 0.9 | 0.00 | 0.34 | 0.34 | 89 | 1010.8 |
| 20260830023043 | 71 | 321 | 0.0 | 1.7 | 0.00 | 0.34 | 0.34 | 89 | 1010.7 |
| 20260830022538 | 71 | 349 | 0.0 | 1.7 | 0.00 | 0.34 | 0.34 | 89 | 1010.6 |
| 20260830022032 | 71 | 16 | 0.0 | 0.9 | 0.00 | 0.34 | 0.34 | 89 | 1010.6 |
| 20260830021526 | 71 | 81 | 0.0 | 1.7 | 0.00 | 0.34 | 0.34 | 89 | 1010.5 |
| 20260830021248 | 72 | 46 | 0.0 | 0.9 | 0.00 | 0.34 | 0.34 | 89 | 1010.7 |
| 20260830021123 | 72 | 280 | 0.0 | 1.7 | 0.00 | 0.34 | 0.34 | 89 | 1010.7 |
| 20260830020008 | 72 | 64 | 0.0 | 0.9 | 0.00 | 0.34 | 0.34 | 88 | 1010.6 |
| 20260830015502 | 72 | 25 | 0.0 | 0.9 | 0.00 | 0.34 | 0.34 | 88 | 1010.7 |
| 20260830014956 | 72 | 25 | 0.0 | 0.9 | 0.00 | 0.34 | 0.34 | 88 | 1010.6 |
| 20260830014722 | 72 | 25 | 0.0 | 0.9 | 0.00 | 0.34 | 0.34 | 88 | 1010.5 |
| 20260830013944 | 73 | 350 | 0.0 | 0.9 | 0.00 | 0.34 | 0.34 | 87 | 1010.5 |